This demonstration page uses our WeatherBlox Daily Observations layout. Learn more.

Left ArrowRight Arrow

Hourly Observations for April 3, 2015

Temp ( °F °C ) Dew Point ( °F °C ) Humidity (%) Winds ( mph kmh ) Pressure ( in mb ) Visibility ( mi km ) Precip ( " mm )
12:00 am 00:00 Cloudy 34 1 34 1 100 100 NNW 3 6 30.27 1025 10 16 N/A
12:53 am 00:53 Cloudy 33 0.6 32 undefined 96 96 SW 5 7 30.24 1024 10 16 N/A
1:24 am 01:24 Cloudy 32 undefined 30 -1 93 93 SW 3 6 30.27 1025 10 16 N/A
1:53 am 01:53 Mostly Cloudy 32 undefined 31 -0.6 96 96 SW 5 7 30.24 1024 10 16 N/A
2:53 am 02:53 Cloudy 31 -0.6 31 -0.6 100 100 WSW 8 13 30.24 1024 10 16 N/A
3:35 am 03:35 Cloudy 31 -0.6 31 -0.6 100 100 WSW 7 11 30.30 1026 10 16 N/A
3:53 am 03:53 Cloudy 31 -0.6 31 -0.6 100 100 WSW 6 9 30.24 1024 10 16 N/A
4:53 am 04:53 Cloudy 32 undefined 31 -0.6 96 96 SW 7 11 30.25 1024 10 16 N/A
5:26 am 05:26 Cloudy 32 undefined 32 undefined 100 100 SW 9 15 30.30 1026 10 16 N/A
5:53 am 05:53 Cloudy 32 undefined 31 -0.6 96 96 WSW 9 15 30.25 1024 10 16 N/A
6:01 am 06:01 Cloudy 32 undefined 31 -0.6 96 96 SW 9 15 30.30 1026 10 16 N/A
6:53 am 06:53 Cloudy 32 undefined 31 -0.6 96 96 SW 8 13 30.27 1025 10 16 N/A
7:06 am 07:06 Cloudy 31 -0.6 30 -1.1 96 96 SW 9 15 30.33 1027 10 16 N/A
7:53 am 07:53 Mostly Cloudy 30 -1.1 28 -2.2 92 92 SW 9 15 30.29 1026 10 16 N/A
8:07 am 08:07 Mostly Sunny 30 -1.1 29 -1.7 96 96 SW 12 19 30.33 1027 10 16 N/A
8:50 am 08:50 Mostly Cloudy 30 -1 30 -1 100 100 WSW 9 15 30.33 1027 10 16 N/A
8:53 am 08:53 Mostly Cloudy 31 -0.6 30 -1.1 96 96 WSW 8 13 30.29 1026 10 16 N/A
9:29 am 09:29 Cloudy 33 0.6 31 -0.6 92 92 SW 12 19 30.30 1026 10 16 N/A
9:39 am 09:39 Cloudy 32 undefined 31 -0.6 96 96 SW 10 17 30.30 1026 10 16 N/A
9:53 am 09:53 Cloudy 33 0.6 31 -0.6 92 92 SW 9 15 30.29 1026 10 16 N/A
10:21 am 10:21 Mostly Cloudy 38 3.3 31 -0.6 76 76 WSW 15 24 30.27 1025 10 16 N/A
10:28 am 10:28 Mostly Sunny 37 3 32 undefined 81 81 WSW 13 20 30.27 1025 10 16 N/A
10:53 am 10:53 Mostly Sunny 40 4.4 31 -0.6 70 70 SW 14 22 30.26 1025 10 16 N/A
11:53 am 11:53 Sunny 45 7.2 29 -1.7 54 54 SW 10 17 30.23 1024 10 16 N/A
12:53 pm 12:53 Mostly Sunny 49 9.4 28 -2.2 44 44 WSW 16 26 30.20 1023 10 16 N/A
1:53 pm 13:53 Mostly Cloudy 50 10 18 -7.8 28 28 W 18 30 30.16 1022 10 16 N/A
2:53 pm 14:53 Mostly Cloudy 51 10.6 18 -7.8 27 27 W 22 35 30.14 1021 10 16 N/A
3:53 pm 15:53 Mostly Cloudy 50 10 19 -7.2 29 29 WNW 20 31 30.12 1020 10 16 N/A
4:53 pm 16:53 Mostly Cloudy 51 10.6 20 -6.7 29 29 W 25 41 30.10 1019 10 16 N/A
5:53 pm 17:53 Sunny 50 10 23 -5 35 35 WNW 14 22 30.10 1019 10 16 N/A
6:53 pm 18:53 Sunny 49 9.4 22 -5.6 35 35 W 8 13 30.09 1019 10 16 N/A
7:53 pm 19:53 Clear 43 6.1 22 -5.6 43 43 W 5 7 30.09 1019 10 16 N/A
8:53 pm 20:53 Clear 38 3.3 23 -5 55 55 N N/A 30.10 1019 10 16 N/A
9:53 pm 21:53 Clear 32 undefined 20 -6.7 61 61 S 12 19 30.11 1020 10 16 N/A
10:53 pm 22:53 Clear 31 -0.6 18 -7.8 59 59 WSW 5 7 30.10 1019 10 16 N/A
11:53 pm 23:53 Clear 25 -3.9 18 -7.8 75 75 WSW 7 11 30.10 1019 10 16 N/A

Powered by AerisWeather